Flag for Germany Weather past 2 weeks in Waldkraiburg, Bavaria, Germany

Now
27 °F

Fog.


Feels Like: 23 °F
Forecast: 13 / 31 °F
Wind: 3 mph from East

Location: Muenchen Flughafen

Current Time: Dec 27, 2014 at 6:19:54 AM

Latest Report: Dec 27, 2014 at 6:00 AM


Visibility: 4 mi

Pressure: 30.02 "Hg

Humidity: 95%

Dew point: 25 °F

Location of WaldkraiburgLocation

Historic Weather in Waldkraiburg — Graph

°F

Waldkraiburg temperature yesterday

Maximum temperature yesterday: 38 °F (at 12:00 AM)
Minimum temperature yesterday: 27 °F (at 11:00 PM)
Average temperature yesterday: 33 °F

Past Weeks' High & Low Weather Summary

 TemperatureHumidityPressure
High56 °F (Dec 19, 2:00 PM)100% (Dec 27, 1:00 AM)30.54 "Hg (Dec 27, 1:00 AM)
Low25 °F (Dec 24, 3:00 AM)35% (Dec 23, 1:00 PM)29.82 "Hg (Dec 12, 9:00 PM)
Average42 °F77%30.15 "Hg
* Reported Dec 12 4:00 AM — Dec 27 4:00 AM, Waldkraiburg, Weather by CustomWeather, © 2014

Note: Actual official high and low records may vary slightly from our data, if they occured in-between our weather recording intervals... More about our weather records

Advertising

Waldkraiburg weather history for previous 24 hours

 ConditionsComfort  
Time TempWeatherWind HumidityBarometerVisibility
4:00 AM
Dec 27
27 °FFog.2 mph97%30.16 "Hg2 mi
3:00 AM28 °FFog.1 mph97%30.21 "Hg2 mi
2:00 AM28 °FFog.1 mph99%30.24 "Hg1 mi
1:00 AM27 °FFog.2 mph100%30.27 "Hg1 mi
12:00 AM26 °FFog.2 mph98%30.32 "Hg4 mi
11:00 PM
Dec 26
27 °FPassing clouds.3 mph96%30.34 "Hg6 mi
10:00 PM28 °FPassing clouds.2 mph93%30.35 "Hg9 mi
9:00 PM29 °FPassing clouds.3 mph92%30.36 "Hg12 mi
8:00 PM33 °FLow clouds.3 mph88%30.36 "Hg7 mi
7:00 PM33 °FSnow flurries. Low clouds.3 mph92%30.36 "Hg6 mi
6:00 PM33 °FSnow showers. Low clouds.6 mph95%30.37 "Hg1 mi
5:00 PM33 °FPassing clouds.3 mph87%30.38 "Hg12 mi
4:00 PM32 °FPassing clouds.6 mph88%30.38 "Hg12 mi
3:00 PM31 °FChilly.7 mph96%30.40 "Hg0 mi
2:00 PM35 °FPartly sunny.7 mph77%30.38 "Hg16 mi
1:00 PM34 °FPartly sunny.5 mph82%30.40 "Hg12 mi
12:00 PM34 °FOvercast.5 mph78%30.41 "Hg12 mi
11:00 AM34 °FOvercast.2 mph85%30.42 "Hg9 mi
10:00 AM33 °FScattered clouds.3 mph90%30.42 "Hg9 mi
9:00 AM32 °FChilly.2 mph89%30.40 "Hg9 mi
8:00 AM32 °FPassing clouds.3 mph90%30.40 "Hg9 mi
7:00 AM33 °FPassing clouds.3 mph89%30.38 "Hg12 mi
6:00 AM33 °FPassing clouds.3 mph89%30.38 "Hg14 mi
Weather by CustomWeather, © 2014

See weather overviewHow to use our weather pages